Regional Weather Roundup
Issued by NWS Grand Forks, ND

Home | Current Version | Previous Version | Graphics & Text | Print | Product List | Glossary On
Versions: 1 2 3 4 5 6 7 8 9 10 11 12 13 14 15 16 17 18 19 20 21 22 23 24 25 26 27 28 29 30 31 32 33 34 35 36 37 38 39 40 41 42 43 44 45 46 47 48 49 50
000
ASUS43 KFGF 121310
RWRFGF
PRAIRIE TO PINES  WEATHER ROUNDUP
NATIONAL WEATHER SERVICE EASTERN NORTH DAKOTA/GRAND FORKS ND
700 AM CST TUE DEC 12 2017

 **SATELLITE DATA USED TO AUGMENT SKY COVER AT AUTOMATED STATIONS**
 *****  WEATHER ACROSS EASTERN NORTH DAKOTA  *****

CITY           SKY/WX    TMP DP  RH WIND       PRES   REMARKS
GRAND FORKS    CLOUDY    20  17  88 S9        30.07F WCI   9
GRAND FRKS AFB CLOUDY    22  18  86 S9        30.04F WCI  11
GRAND FRKS NWS   N/A     18 N/A N/A S6          N/A  WCI   9
DEVILS LAKE    FAIR      24  22  91 SW7       30.01F WCI  16
FARGO          CLOUDY    18  14  84 S10       30.11F WCI   6
WAHPETON ARPT    N/A     18  12  79 S10       30.16F WCI   6
$$

 ***** WEATHER ACROSS CENTRAL AND WESTERN NORTH DAKOTA  *****

CITY           SKY/WX    TMP DP  RH WIND       PRES   REMARKS
BISMARCK       FAIR      26  24  92 SW5       30.11F WCI  20
MINOT          FAIR      30  24  78 SW8       29.99F WCI  22
JAMESTOWN      FAIR      24  22  91 SW8       30.06F WCI  15
MINOT AFB      FAIR      29  23  79 W12       29.97F WCI  19
GARRISON         N/A     26  24  92 W12       30.03F WCI  16
WILLISTON      CLEAR     27  21  80 SW2       30.07F
DICKINSON      FAIR      27  22  81 W12       30.05F WCI  17
HETTINGER      FAIR      20  16  84 CALM      30.13F
$$

 *****  OTHER AIRPORT OBSERVATIONS IN OUR AREA  *****

CITY           SKY/WX    TMP DP  RH WIND       PRES   REMARKS
WALHALLA       FAIR      23  23 100 E5        30.00F WCI  17
GRAFTON AIRPOR CLOUDY    19  19 100 S10       30.05F WCI   8
VALLEY CITY AR PTSUNNY   25  25 100 SW14G20   30.08F WCI  13
CANDO          FAIR      25  25 100 W13       30.01F WCI  13
CAVALIER APRT  CLOUDY    19  19 100 S7        30.02F WCI  10
GWINNER          N/A     21  19  93 SW12      30.13F WCI   9
SHEYENNE NWR     N/A     22  21  96 SW8       29.95S WCI  12
ROLLA          PTSUNNY   25  25 100 SW3       29.96F
 ***** THE ABOVE OBSERVATIONS ARE NON NWS ARE NOT QUALITY
       CONTROLLED AND MAY MIS-REPORT RAIN FOR SNOW...
$$

  *****  WEATHER ACROSS NORTHERN MINNESOTA  *****

CITY           SKY/WX    TMP DP  RH WIND       PRES   REMARKS
FLAG ISLAND    CLOUDY     3   0  85 SE3       30.08F
WARROAD        LGT SNOW   3   0  85 E5        30.07F WCI  -6
ROSEAU         CLOUDY     9   3  78 SE6       30.05F WCI  -1
HALLOCK        CLOUDY    16  14  93 S14       30.04F WCI   1
THF RVR FALLS  LGT SNOW  12   9  87 S12       30.08F FOG     WCI  -2
BAUDETTE       CLOUDY     1  -2  87 S3        30.08F
WASKISH        FLURRIES   1   0  92 CALM      30.11F
CROOKSTON      CLOUDY    16  12  86 S14       30.09F WCI   1
STEPHEN NDAWN    N/A     16  12  86 S12         N/A  WCI   3
GREENBUSH NDAW   N/A     12   9  85 S12         N/A  WCI  -2
$$
  *****  WEATHER ACROSS CENTRAL AND WEST MINNESOTA  *****

CITY           SKY/WX    TMP DP  RH WIND       PRES   REMARKS
FOSSTON        CLOUDY     9   7  92 S9        30.09F WCI  -5
BEMIDJI        CLOUDY     4   0  86 CALM      30.09F
PARK RAPIDS    CLOUDY     7   3  84 S5        30.10F WCI  -2
ELBOW LAKE     CLOUDY    12   9  87 S7        30.16F WCI   2
WADENA         CLOUDY     9   5  85 SW3       30.13F
DETROIT LAKES  MOCLDY    14  12  92 S8        30.10F WCI   3
MOORHEAD       CLOUDY    16  10  79 S9        30.13F WCI   4
FERGUS FALLS   CLOUDY    12   9  85 S8        30.18F WCI   1
MORRIS MN      CLOUDY    16  10  79 S6        30.17F WCI   7
STAPLES        CLOUDY     7   3  85 CALM      30.15F
$$
  *****  WEATHER ELSEWHERE ACROSS MINNESOTA  *****

CITY           SKY/WX    TMP DP  RH WIND       PRES   REMARKS
DULUTH         FAIR      -2  -5  87 W8        30.10S WCI -17
INTRNTL FALLS  CLOUDY    -3  -8  79 SW3       30.11S
ELY            MOCLDY    -8 -11  84 CALM      30.08S
CLOQUET        FAIR       0  -6  78 W5        30.13S WCI -10
WHEATON        CLOUDY    18  12  79 S7        30.18F WCI   8
BRAINERD       CLOUDY     1  -3  83 CALM      30.17F
HIBBING        FAIR      -4  -8  83 W3        30.11S
ALEXANDRIA     CLOUDY    12   7  80 W6        30.16F WCI   3
SAINT CLOUD    MOCLDY     5   2  87 NW5       30.20F WCI  -4
MINNEAPOLIS    FAIR       6   2  83 NW8       30.23F WCI  -7
$$

  *****  WEATHER ACROSS SOUTH DAKOTA  *****

CITY           SKY/WX    TMP DP  RH WIND       PRES   REMARKS
SIOUX FALLS    CLOUDY    16  14  92 W5        30.25F WCI   9
BROOKINGS      CLOUDY    17  14  88 S6        30.21F WCI   9
WATERTOWN      CLOUDY    20  18  92 SW7       30.16F WCI  11
HURON          CLOUDY    23  20  88 S9        30.22F WCI  13
SISSETON         N/A     24  19  81 W7        30.14F WCI  16
ABERDEEN       FAIR      19  19 100 SW7       30.18F WCI  10
MITCHELL       CLOUDY    22  20  92 S5        30.27F WCI  16
PIERRE         FAIR      25  24  96 W5        30.21F WCI  19
MOBRIDGE       FAIR      27  22  81 CALM      30.13F
RAPID CITY     FAIR      23   8  52 CALM      30.19F
$$

  *****  SOME WEATHER IN NEARBY STATES *****

CITY           SKY/WX    TMP DP  RH WIND       PRES   REMARKS
GLASGOW MT     FAIR      23  18  81 N6        30.09F WCI  16
GREAT FALLS MT FAIR      43   5  20 SW21      30.19F
CHEYENNE WY    FAIR      41  16  36 W15G22    30.33F
SCOTTSBLUFF NE FAIR      21  14  74 NW8       30.30F WCI  11
OMAHA NE       FAIR      16  10  77 N3        30.35S
DES MOINES IA  FAIR      15   8  73 NW10      30.28S WCI   2
DAVENPORT IA   FAIR      16   9  74 NW15      30.20R WCI   1
CHICAGO IL     FAIR      18   7  62 NW16      30.06R WCI   3
EAU CLAIRE WI  FAIR       2  -1  88 W3        30.17F
LA CROSSE WI   FAIR      12   5  73 NW12      30.20R WCI  -2
$$

  *****  SOME NATIONAL WEATHER *****

CITY           SKY/WX    TMP DP  RH WIND       PRES   REMARKS
LA GUARDIA NY  CLOUDY    49  40  71 S13G18    29.64F
RALEIGH NC     MOCLDY    40  34  79 SW9       29.72F
ATLANTA GA     FAIR      41  36  82 W9        29.87R
NEW ORLEANS LA FAIR      51  43  74 NW10      30.14R
OKLAHOMA CITY  FAIR      34  27  75 N15       30.40R WCI  24
ALBUQUERQUE NM FAIR      32   4  30 N6        30.49S
SALT LAKE CITY SNOW      24  22  91 CALM      30.59F VSB 1/4
LOS ANGELES CA FAIR      55   9  16 E5        30.18F
BOISE ID       CLOUDY    24  21  88 N5        30.67S WCI  18
SEATTLE WA     FAIR      33  25  72 SE3       30.43F
$$

*** WEATHER ACROSS MANITOBA...SASKATCHEWAN AND ONTARIO ***
                ***ONTARIO***

CITY           SKY/WX    TMP DP  RH WIND       PRES   REMARKS
GERALDTON      FLURRIES  -9 -15  77 NW3       30.01S
THUNDER BAY    MOCLDY     0  -6  78 W9        30.10S WCI -16
SIOUX LOOKOUT  NOT AVBL
TORONTO        LGT SNOW  27  25  93 W7        29.52R WCI  19
BIG TROUT LK   CLOUDY    -9 -15  77 W7        30.01F WCI -24
PICKLE LAKE    PTCLDY   -15 -20  76 W7        29.99F WCI -31
DRYDEN         PTCLDY    -9 -13  84 W5        30.05F WCI -21
KENORA         MOCLDY     0  -4  85 SW3       30.05F
$$
                *** MANITOBA***

CITY           SKY/WX    TMP DP  RH WIND       PRES   REMARKS
BRANDON        CLOUDY    27  23  86 W7        29.93F WCI  19
DAUPHIN        MOCLDY    30  27  86 SW8       29.89F WCI  23
ISLAND LAKE    NOT AVBL
PILOT MOUND      N/A     23  21  93 SW5         N/A  WCI  17
THE PAS        CLOUDY    16  14  93 SE12      29.83F WCI   3
THOMPSON       FLURRIES  -4  -9  77 SE2       29.92F
WINNIPEG       FRZ DRZL  14  10  85 S12       30.02F FOG     WCI   0
LYNN LAKE      LGT SNOW   7   5  92 S10       29.72F WCI  -8
CHURCHILL      CRYSTALS -20 -26  76 W7        29.97F WCI -37
GILLAM         CLEAR    -20 -26  76 SW6       29.98F WCI -36
$$
                ***SASKATCHEWAN***

CITY           SKY/WX    TMP DP  RH WIND       PRES   REMARKS
ESTEVAN        CLEAR     27  21  80 SW10      29.97F WCI  17
KINDERSLEY     PTCLDY    27  21  80 S8        29.91F WCI  18
LLOYDMINSTER   CLEAR     37  25  60 W15       29.82F
PRINCE ALBERT  CLEAR     23  19  86 SW3       29.79F
REGINA         CLEAR     27  21  80 W6        29.93F WCI  20
YORKTON        MOCLDY    25  21  86 SW2       29.87S
N. BATTLEFORD  CLEAR     21  18  86 CALM      29.85F
LA RONGE       PTCLDY    14  10  85 S5        29.70F WCI   6
SASKATOON      CLEAR     27  23  86 SW13      29.88F WCI  16
SWIFT CURRENT  CLEAR     37  21  52 W14       29.96F
$$
NOTE: THESE ARE AUTOMATED STATIONS WITH LIMITED QUALITY CONTROL
      "FAIR" INDICATES FEW OR NO CLOUDS BELOW 12,000 FEET WITH NO
      SIGNIFICANT WEATHER AND/OR OBSTRUCTIONS TO VISIBILITY.
      SKY/WX - SKY CONDITION AND SIGNIFICANT WEATHER.
      TMP - AIR TEMPERATURE.    DP   - DEWPOINT TEMPERATURE.
      RH  - RELATIVE HUMIDITY.  PRES - PRESSURE.
      HX  - HEAT INDEX.         WCI  - WIND CHILL INDEX.
$




USA.gov is the U.S. government's official web portal to all federal, state and local government web resources and services.